Weather in Strumok

Ukraine / Odesa District     45°43′17″N   29°26′39″E
temp.,
°C
wind,
m/s
gust,
m/s
humid.,
%
clouds,
%
prec.,
mm/h
press.,
hPa
HPBL,
m
20 april, tue
tue2000:00+8nne2279100 0.0 101142
03:00+8nne2286100 0.0 100925
06:00+9n3682100 0.0 1008184
09:00+11n457599 0.1 1008504
12:00+10nnw5679100 0.1 1010419
15:00+13wnw456372 0.9 10101194
18:00+13nnw355381 0.3 1010420
21:00+10wnw336580 0.3 101241
21 april, wed
wed2100:00+8w357944 0.0 101369
03:00+7w34855 0.0 101349
06:00+7wsw228979 0.1 101412
09:00+11wsw22755 0.3 1015372
12:00+16wsw345010 0.2 10151657
15:00+17wsw3338100 0.3 10152158
18:00+16wsw244586 0.0 1015933
21:00+12ssw476587 0.0 1017162
22 april, thu
thu2200:00+12ssw3666100 0.0 1017130
03:00+12sw346789 0.0 101784
06:00+12sw356975 0.0 101895
09:00+15sw35595 0.0 1019389
12:00+19sw56425 0.0 10192068
15:00+18sw564279 0.1 10181106
18:00+18ssw884612 0.0 10181022
21:00+14s612566 0.0 1019328
23 april, fri
fri2300:00+11s5116821 0.0 1019258
03:00+10ssw4107650 0.0 1018232
06:00+11s5107592 0.0 1018295
09:00+13ssw59726 0.0 1018376
12:00+19s8945100 0.0 10171795
15:00+19s81042100 0.0 10161675
18:00+16s81152100 0.1 1016793
21:00+8n101485100 1.1 1020735
24 april, sat
sat2400:00+7nne51186100 5.1 1021618
03:00+6nnw35895 5.1 1022155
06:00+5nw378923 0.0 1022179
09:00+9nnw7959100 0.0 1023767
12:00+12nnw674527 0.0 10241575
15:00+14nnw663380 0.0 10231919
18:00+13n34330 0.0 10231744
21:00+9e22470 0.0 102314